Voltar ao catálogo

STARLINK-30414

AtivoComunicaçõesVLEO
NORAD 57859·PAYLOAD·🇺🇸 United States

Lançado Sep 12, 2023 de Vandenberg Space Force Base

Loading…

Próximas Passagens (próximas 24 horas)

TLE

AtualizadoSource: CelesTrak SupGP

Época: Sep 15, 2026, 03:11 UTC

1 57859C 23141V   26258.13312500  .00035784  00000+0  10573-2 0  2585
2 57859  53.1563 122.4715 0001238  80.7253  29.9366 15.34371733    13

Acompanhe STARLINK-30414 em tempo real com AllMySat

Download on the App Store